Date String (YYYY-MM-DD hh:mm:ss) UTC,Instrument flags,Ambient pressure (hPa),Sample flow (lpm),Bypass flow (lpm),Sample temperature (°C),Ambient temperature (°C),ASC tube jacket temperature (°C),LED temperature (°C),Box temperature (°C),Sample RH (%),Span deviation,Mass concentration (μg/m³),Mass concentration (μg/m³),Mass concentration (μg/m³)
DateTimeUTC,F1_M11,P_M11,Q1_M11,Q2_M11,T1_M11,T2_M11,T3_M11,T4_M11,T5_M11,U1_M11,ZSPAN_M11,X2_M11,X0_M11,X1_M11
2023-05-25 16:00:00,,0829.2,5.00,0.00,29.6,28.3,00.0,37.9,31.2,29.1,0003.0,0010.97,0019.06,0010.09
2023-05-25 16:01:00,,0829.2,4.99,0.00,29.6,28.3,00.0,37.9,31.2,28.7,0002.9,0010.93,0019.52,0010.07
2023-05-25 16:02:00,,0829.2,4.98,0.00,29.6,28.3,00.0,37.9,31.3,28.7,0002.9,0010.95,0019.98,0010.08
2023-05-25 16:03:00,,0829.2,5.00,0.00,29.6,28.3,00.0,37.9,31.3,29.1,0002.8,0010.97,0020.09,0010.09
2023-05-25 16:04:00,,0829.2,5.00,0.00,29.7,28.3,00.0,37.9,31.3,29.4,0002.7,0010.99,0020.40,0010.11
2023-05-25 16:05:00,,0829.2,5.00,0.00,29.7,28.3,00.0,37.9,31.3,29.7,0002.7,0011.01,0021.06,0010.13
2023-05-25 16:06:00,,0829.2,5.00,0.00,29.7,28.3,00.0,37.9,31.3,29.2,0002.7,0011.03,0021.17,0010.16
2023-05-25 16:07:00,,0829.2,5.01,0.00,29.7,28.3,00.0,38.0,31.3,29.6,0002.6,0011.05,0021.58,0010.17
2023-05-25 16:08:00,,0829.2,5.00,0.00,29.7,28.3,00.0,38.0,31.3,29.4,0002.6,0011.07,0022.34,0010.23
2023-05-25 16:09:00,,0829.2,5.00,0.00,29.7,28.3,00.0,38.0,31.3,30.0,0002.7,0011.12,0022.98,0010.28
2023-05-25 16:10:00,,0829.3,4.99,0.00,29.7,28.3,00.0,38.0,31.3,29.3,0002.7,0011.17,0023.35,0010.34
2023-05-25 16:11:00,,0829.2,5.00,0.00,29.7,28.3,00.0,38.0,31.3,28.9,0002.7,0011.22,0022.95,0010.44
2023-05-25 16:12:00,,0829.2,5.00,0.00,29.7,28.3,00.0,38.0,31.3,29.0,0002.9,0011.29,0022.50,0010.51
2023-05-25 16:13:00,,0829.2,5.01,0.00,29.7,28.3,00.0,38.0,31.3,28.4,0003.0,0011.36,0021.47,0010.61
2023-05-25 16:14:00,,0829.2,5.01,0.00,29.7,28.3,00.0,38.0,31.3,29.0,0003.0,0011.40,0021.48,0010.68
2023-05-25 16:15:00,,0829.1,5.00,0.00,29.7,28.3,00.0,38.0,31.4,29.2,0003.0,0011.44,0021.33,0010.73
2023-05-25 16:16:00,,0829.1,5.00,0.00,29.8,28.3,00.0,38.0,31.4,28.9,0003.1,0011.53,0020.98,0010.77
2023-05-25 16:17:00,,0829.1,5.00,0.00,29.8,28.4,00.0,38.1,31.4,28.5,0003.1,0011.55,0020.86,0010.79
2023-05-25 16:18:00,,0829.1,5.00,0.00,29.8,28.4,00.0,38.1,31.4,28.6,0003.1,0011.60,0021.23,0010.83
2023-05-25 16:19:00,,0829.1,5.00,0.00,29.8,28.4,00.0,38.1,31.4,28.3,0003.1,0011.61,0020.50,0010.83
2023-05-25 16:20:00,,0829.1,5.00,0.00,29.8,28.4,00.0,38.1,31.4,28.7,0003.1,0011.61,0019.64,0010.83
2023-05-25 16:21:00,,0829.1,5.00,0.00,29.8,28.4,00.0,38.1,31.4,28.6,0003.0,0011.65,0019.24,0010.84
2023-05-25 16:22:00,,0829.1,5.00,0.00,29.8,28.4,00.0,38.1,31.4,28.7,0003.1,0011.61,0019.11,0010.81
2023-05-25 16:23:00,,0829.2,5.00,0.00,29.8,28.4,00.0,38.1,31.4,28.1,0003.0,0011.60,0019.07,0010.81
2023-05-25 16:24:00,,0829.1,4.98,0.00,29.8,28.4,00.0,38.1,31.4,27.6,0002.9,0011.59,0019.42,0010.78
2023-05-25 16:25:00,,0829.1,5.00,0.00,29.8,28.4,00.0,38.1,31.4,27.8,0002.8,0011.58,0019.39,0010.77
2023-05-25 16:26:00,,0829.2,5.00,0.00,29.8,28.4,00.0,38.1,31.5,28.0,0002.7,0011.61,0019.40,0010.77
2023-05-25 16:27:00,,0829.1,5.01,0.00,29.8,28.5,00.0,38.2,31.5,29.3,0002.8,0011.58,0019.18,0010.77
2023-05-25 16:28:00,,0829.1,5.00,0.00,29.9,28.5,00.0,38.2,31.5,29.0,0002.8,0011.58,0019.37,0010.81
2023-05-25 16:29:00,,0829.2,5.00,0.00,29.9,28.5,00.0,38.2,31.5,29.1,0002.8,0011.62,0019.09,0010.85
2023-05-25 16:30:00,,0829.1,4.98,0.00,29.9,28.5,00.0,38.2,31.5,28.6,0002.8,0011.74,0019.11,0010.93
2023-05-25 16:31:00,,0829.2,4.99,0.00,29.9,28.5,00.0,38.2,31.5,28.0,0002.7,0011.78,0019.57,0010.97
2023-05-25 16:32:00,,0829.2,5.02,0.00,29.9,28.5,00.0,38.2,31.5,27.2,0002.8,0011.80,0019.59,0011.01
2023-05-25 16:33:00,,0829.2,5.00,0.00,29.9,28.0,00.0,38.2,31.6,27.5,0002.6,0011.81,0020.11,0011.02
2023-05-25 16:34:00,,0829.1,4.99,0.00,29.9,26.5,00.0,38.1,31.3,27.5,0002.6,0011.83,0020.41,0011.04
2023-05-25 16:35:00,,0829.1,5.01,0.00,29.8,26.2,00.0,38.0,31.2,27.9,0002.8,0011.83,0020.11,0011.06
2023-05-25 16:36:00,,0829.1,5.00,0.00,29.8,26.3,00.0,38.0,31.1,28.1,0002.9,0011.89,0020.70,0011.09
2023-05-25 16:37:00,,0829.1,5.00,0.00,29.7,26.6,00.0,38.0,31.1,28.4,0003.0,0011.90,0020.94,0011.13
2023-05-25 16:38:00,,0829.1,5.01,0.00,29.7,26.8,00.0,38.0,31.1,28.5,0002.9,0011.87,0020.87,0011.13
2023-05-25 16:39:00,,0829.1,5.01,0.00,29.7,27.1,00.0,38.0,31.1,28.5,0002.8,0011.89,0020.97,0011.13
2023-05-25 16:40:00,,0829.1,4.99,0.00,29.6,27.3,00.0,38.0,31.1,28.4,0002.9,0011.91,0021.00,0011.12
2023-05-25 16:41:00,,0829.1,4.99,0.00,29.6,27.5,00.0,38.0,31.1,27.8,0003.0,0011.85,0020.69,0011.08
2023-05-25 16:42:00,,0829.1,5.01,0.00,29.6,27.6,00.0,38.0,31.2,28.8,0003.0,0011.80,0019.87,0011.06
2023-05-25 16:43:00,,0829.2,5.00,0.00,29.6,27.7,00.0,38.0,31.2,28.3,0003.0,0011.81,0020.02,0011.06
2023-05-25 16:44:00,,0829.2,4.99,0.00,29.6,27.8,00.0,38.0,31.2,28.1,0003.1,0011.83,0020.44,0011.11
2023-05-25 16:45:00,,0829.2,4.99,0.00,29.7,27.9,00.0,38.0,31.2,28.1,0003.2,0011.89,0020.04,0011.16
2023-05-25 16:46:00,,0829.2,4.99,0.00,29.7,28.0,00.0,38.0,31.3,26.4,0003.1,0011.87,0020.03,0011.14
2023-05-25 16:47:00,,0829.2,5.00,0.00,29.7,28.1,00.0,38.0,31.3,26.1,0003.1,0011.81,0020.14,0011.11
2023-05-25 16:48:00,,0829.2,5.00,0.00,29.7,28.1,00.0,38.0,31.3,26.2,0003.1,0011.79,0019.71,0011.10
2023-05-25 16:49:00,,0829.2,5.01,0.00,29.7,28.1,00.0,38.0,31.3,26.2,0003.1,0011.84,0019.84,0011.12
2023-05-25 16:50:00,,0829.2,5.00,0.00,29.7,28.2,00.0,38.0,31.3,27.1,0003.2,0011.86,0019.81,0011.14
2023-05-25 16:51:00,,0829.2,4.99,0.00,29.7,28.2,00.0,38.0,31.3,27.6,0003.3,0011.84,0019.63,0011.13
2023-05-25 16:52:00,,0829.2,5.00,0.00,29.7,28.3,00.0,38.0,31.4,26.9,0003.2,0011.79,0019.57,0011.10
2023-05-25 16:53:00,,0829.2,5.00,0.00,29.8,28.3,00.0,38.1,31.4,26.6,0003.3,0011.74,0019.47,0011.07
2023-05-25 16:54:00,,0829.2,5.01,0.00,29.8,28.3,00.0,38.1,31.4,26.6,0003.3,0011.67,0019.27,0011.00
2023-05-25 16:55:00,,0829.2,5.00,0.00,29.8,28.4,00.0,38.1,31.4,26.6,0003.3,0011.62,0018.77,0010.92
2023-05-25 16:56:00,,0829.2,4.99,0.00,29.8,28.0,00.0,38.1,31.4,27.4,0003.2,0011.58,0019.91,0010.87
2023-05-25 16:57:00,,0829.2,4.99,0.00,29.8,26.5,00.0,38.0,31.2,26.9,0003.1,0011.56,0020.38,0010.86
2023-05-25 16:58:00,,0829.1,5.02,0.00,29.7,25.5,00.0,37.9,31.0,25.0,0003.1,0011.43,0019.93,0010.75
2023-05-25 16:59:00,,0829.1,5.01,0.00,29.6,25.5,00.0,37.9,30.9,26.4,0003.0,0011.26,0019.70,0010.60
